Location: Byszew
(52.1813°N, 19.2693°E)
Time: 14:28:14
(UTC+00:00)

Resurs 01 Rocket - Pass Details

Date: 03 March 2021
Orbit: 635 x 643 km, 98.0° (Epoch: 13 April)

Event Time Altitude Azimuth Distance (km) Brightness Sun altitude
Exits shadow 19:12:41 71° 337° (NNW) 678 1.7 -25.8°
Drops below altitude 10° 19:16:39 10° 345° (NNW) 2,037 4.7 -26.3°
Sets 19:18:52 0° 346° (NNW) 2,952 5.6 -26.6°
